Погода в Широковском

Россия / Курганская область     56°20′53″N   63°03′15″E
темп.,
°C
ветер,
м/с
пор.,
м/с
влажн.,
%
обл.,
%
осадки,
мм/ч
давл.,
гПа
погр.,
м
25 февраля, чт
чт2523:00−23с81491100 0.4 1019763
02:00−25с71391100 0.1 1021594
05:00−26с71390100 0.1 1023456
08:00−30ссз5129370 0.0 1025265
11:00−26ссз599338 0.0 1027331
14:00−22сз479274 0.0 1027413
17:00−21зсз349485 0.0 1027107
20:00−24зсз229761 0.0 102820
26 февраля, пт
пт2623:00−25зюз229857 0.0 103020
02:00−24зюз239998 0.0 102920
05:00−26зюз339560 0.1 103020
08:00−28зюз23950 0.0 102919
11:00−22юз23900 0.0 1030185
14:00−19ю34866 0.0 1028318
17:00−20ююв35923 0.0 1027172
20:00−25ююв47940 0.0 102798
27 февраля, сб
сб2723:00−29ююв44950 0.0 102772
02:00−30ююв44950 0.0 102576
05:00−29юв48976 0.0 1024131
08:00−28юв5109662 0.0 1021212
11:00−24юв6109676 0.0 1019318
14:00−19юв71294100 0.1 1016490
17:00−16юв71395100 0.6 1014651
20:00−14вюв81494100 0.9 1008623
28 февраля, вс
вс2823:00−11вюв71394100 2.1 1006613
02:00−10в71294100 0.7 1003514
05:00−10в61194100 1.0 1003403
08:00−11всв61193100 0.3 1003387
11:00−11св61093100 0.6 1003449
14:00−12св6992100 0.3 1004492
17:00−14ссв6993100 0.6 1006430
20:00−16ссв5109398 0.2 1008381
1 марта, пн
пн123:00−18ссв599497 0.3 1010337
02:00−22с599695 0.0 1012232
05:00−24с599694 0.0 1014234
08:00−26ссз499784 0.0 1016193
11:00−23ссз479684 0.0 1017270
14:00−20ссз469386 0.0 1018340
17:00−19ссз359488 0.0 1018225
20:00−22ссз239789 0.0 102020